Regional Weather Roundup
Issued by NWS

Home | Current Version | Previous Version | Graphics & Text | Print | Product List | Glossary On
Versions: 1 2 3 4 5 6 7 8 9 10 11 12 13 14 15 16 17 18 19 20 21 22 23 24 25 26 27
000
ASUS45 KBOU 191910
RWRCO

WEATHER ROUNDUP FOR COLORADO
NATIONAL WEATHER SERVICE DENVER/BOULDER CO
100 PM MDT SAT MAY 19 2018

NOTE: "FAIR" INDICATES FEW OR NO CLOUDS BELOW 12000 FEET WITH NO
SIGNIFICANT WEATHER AND/OR OBSTRUCTIONS TO VISIBILITY.

COZ001>005-013-030-031-192000-
...NORTHWEST COLORADO...

CITY           SKY/WX    TMP DP  RH WIND       PRES   REMARKS
CRAIG          FAIR      64  45  49 VRB5      30.05F
HAYDEN         FAIR      59  41  51 W7        30.07F
MEEKER         PTSUNNY   65  40  39 VRB5      30.03F
RANGELY        MOCLDY    70  40  33 SE5G17    30.00F
RABBIT EARS PA MOCLDY    41  34  75 SE5       30.23S THUNDER
STEAMBOAT SPGS FAIR      59  39  47 SW6       30.05F
WALDEN         CLOUDY    52  34  50 N10G18    30.15F
$$

COZ006>008-011-192000-
...WEST CENTRAL VALLEYS...

CITY           SKY/WX    TMP DP  RH WIND       PRES   REMARKS
GRAND JUNCTION FAIR      74  32  21 NW8       29.93F
MONTROSE       FAIR      71  25  17 VRB6      29.96F
EAGLE          LGT RAIN  62  27  26 SE6G17    30.02
RIFLE          FAIR      70  37  29 W9        29.95F
DELTA          NOT AVBL
NUCLA          NOT AVBL
$$

COZ017>023-064>068-192000-
...SOUTHWEST COLORADO...

CITY           SKY/WX    TMP DP  RH WIND       PRES   REMARKS
DURANGO        PTSUNNY   73  23  15 W17G24    30.01F
CORTEZ         FAIR      75  25  15 W13       29.99F
PAGOSA SPRINGS NOT AVBL
TELLURIDE      LGT RAIN  56  22  26 W14G22    30.15S
WOLF CREEK PAS PTSUNNY   45  19  36 SW16G24   30.33R
$$

COZ009-010-012-014-032>034-037-058>063-192000-
...CENTRAL COLORADO...

CITY           SKY/WX    TMP DP  RH WIND       PRES   REMARKS
ASPEN          PTSUNNY   61  23  23 N14G22    30.04R
BUENA VISTA    NOT AVBL
COPPER MTN     CLOUDY    41  25  52 CALM      30.27R
BERTHOUD PASS  HAZE      30  19  64 S9G17     30.30S VSB<1/4 WCI  22
COTTONWOOD PAS PTSUNNY   57  34  41 SE8       30.15F
GUNNISON       FAIR      65  23  20 SW13G18   30.02F
GRANBY         FAIR      53  34  48 CALM      30.11F
KREMMLING      FAIR      64  36  34 NW5       30.08F
LEADVILLE      PTSUNNY   47  28  47 VRB6      30.13F
MONARCH PASS   CLOUDY    45  18  33 MISG      30.37S
SALIDA         NOT AVBL
SUNLIGHT       PTSUNNY   43  30  61 S7        30.25F
WILKERSON PASS CLOUDY    39  36  87 E8        30.26F FOG
$$

COZ069>075-192000-
...SAN LUIS VALLEY/SANGRE DE CRISTO MOUNTAINS...

CITY           SKY/WX    TMP DP  RH WIND       PRES   REMARKS
ALAMOSA        FAIR      67  20  16 SW12G21   30.04F
DEL NORTE      NOT AVBL
LA VETA PASS   PTSUNNY   54  41  62 N17G28    30.32S
SAGUACHE       NOT AVBL
$$

COZ035-036-038>040-192000-
...NORTHERN COLORADO FRONT RANGE...

CITY           SKY/WX    TMP DP  RH WIND       PRES   REMARKS
DENVER INTL AP LGT RAIN  46  40  79 N14       30.16R
AURORA         LGT RAIN  45  42  89 N14       30.17R
FRONT RANGE AP CLOUDY    45  46 100 N16G23    30.17R
ERIE MUNI ARPT LGT RAIN  48  41  79 N14G22    30.23R
BOULDER MUN AP LGT RAIN  46  43  87 NE12      30.17S
CENTENNIAL     CLOUDY    44  41  89 N15G22    30.17R
BROOMFIELD     CLOUDY    46  43  87 N16       30.18R
FORT COLLINS   LGT RAIN  47  43  86 N14       30.17S
LONGMONT       NOT AVBL
$$

COZ041-046-047-076>085-087-088-192000-
...PIKES PEAK/PALMER DIVIDE AND SOUTHERN FOOTHILLS...

CITY           SKY/WX    TMP DP  RH WIND       PRES   REMARKS
COLO. SPRINGS  CLOUDY    55  43  63 N10       30.11R
A. F. ACADEMY  CLOUDY    52  42  68 N21G31    30.12R
SCHRIEVER AFB  NOT AVBL
CHEYENNE MTN   CLOUDY    50  43  76 N7        30.08S
ELLICOTT         N/A    N/A N/A N/A N20       30.10R
FALCON         NOT AVBL
FORT CARSON    CLOUDY    57  42  56 CALM      30.08S
LIMON          CLOUDY    50  42  74 N20G35    30.10S
MONUMENT HILL  CLOUDY    41  39  93 N14       30.18R
CANON CITY     PTSUNNY   64  48  55 SE8G17    30.03F
WALSENBURG     MOCLDY    64  43  45 E12G18    30.05F
TRINIDAD       FAIR      65  45  48 E6        30.04F
$$

COZ042>045-048>051-090-091-192000-
...NORTHEAST COLORADO...

CITY           SKY/WX    TMP DP  RH WIND       PRES   REMARKS
GREELEY ARPT   LGT RAIN  46  43  87 N21       30.17R
AKRON          LGT RAIN  44  44 100 N18G29    30.10R
BURLINGTON     PTSUNNY   58  45  62 NW32G45   30.01R
WRAY           NOT AVBL
YUMA           LGT RAIN  45  45 100 N18       30.06R
STERLING       RAIN      45  45 100 N14       30.10R
HOLYOKE        RAIN      46  45  93 N20G25    30.05R
FORT MORGAN    NOT AVBL
$$

COZ086-089-092>099-192000-
...SOUTHEAST COLORADO...

CITY           SKY/WX    TMP DP  RH WIND       PRES   REMARKS
PUEBLO         PTSUNNY   67  45  45 SE7       30.02F
LA JUNTA       FAIR      67  49  52 NE6       30.03F
LAMAR          FAIR      67  49  52 N13G21    29.99F
SPRINGFIELD      N/A     67  49  52 NW10      30.00F
$$




USA.gov is the U.S. government's official web portal to all federal, state and local government web resources and services.